Precipitable_Water
1.49 1.47 1.47 1.42 1.39 1.36 1.36 1.39 1.41 1.45 1.45 1.42 1.36 1.31 1.29 1.29 1.29 1.30 1.33 1.29 1.29 1.27 1.28 1.32 1.39 1.44 1.50 1.55 1.56 1.55 1.52 1.48 1.44 1.36 1.29 1.24 1.22 1.23 1.22 1.16 1.12 1.14 1.17 1.17 1.20 1.20 1.15 1.09 1.08 1.10 1.14 1.12 1.15 1.19 1.23 1.26 1.29 1.28 1.28 1.27 1.24 1.23 1.17 1.06 0.95 0.92 1.02 1.15 1.13 1.15 1.24 1.26 1.21 1.24 1.19 1.21 1.25 1.32 1.37 1.38 1.36 1.32 1.30 1.31 1.33
1.46 1.47 1.49 1.47 1.44 1.44 1.45 1.47 1.49 1.50 1.48 1.46 1.39 1.36 1.32 1.29 1.31 1.34 1.30 1.32 1.31 1.28 1.28 1.31 1.36 1.41 1.45 1.52 1.57 1.57 1.52 1.46 1.41 1.33 1.25 1.20 1.19 1.24 1.23 1.20 1.16 1.17 1.20 1.18 1.20 1.23 1.20 1.14 1.10 1.10 1.12 1.12 1.15 1.16 1.19 1.22 1.25 1.25 1.26 1.25 1.24 1.22 1.22 1.09 1.01 0.96 0.90 1.03 1.08 1.20 1.21 1.27 1.15 1.25 1.20 1.21 1.26 1.31 1.28 1.29 1.31 1.30 1.29 1.30 1.29
1.46 1.49 1.48 1.46 1.46 1.49 1.52 1.51 1.52 1.52 1.48 1.47 1.44 1.41 1.38 1.34 1.35 1.31 1.31 1.32 1.34 1.32 1.30 1.31 1.34 1.37 1.42 1.51 1.57 1.55 1.48 1.43 1.39 1.32 1.25 1.21 1.18 1.21 1.24 1.21 1.19 1.20 1.21 1.21 1.22 1.24 1.21 1.16 1.12 1.11 1.11 1.10 1.14 1.17 1.21 1.21 1.24 1.24 1.24 1.27 1.24 1.24 1.24 1.19 1.08 0.97 0.95 0.98 1.09 1.10 1.15 1.20 1.17 1.20 1.26 1.29 1.30 1.29 1.24 1.25 1.26 1.28 1.30 1.30 1.28
1.47 1.48 1.46 1.46 1.50 1.52 1.52 1.53 1.52 1.51 1.48 1.49 1.45 1.44 1.43 1.39 1.37 1.33 1.33 1.36 1.32 1.33 1.34 1.33 1.35 1.35 1.39 1.47 1.54 1.51 1.46 1.40 1.36 1.33 1.27 1.25 1.23 1.22 1.24 1.25 1.26 1.28 1.28 1.26 1.25 1.24 1.20 1.15 1.14 1.13 1.10 1.06 1.10 1.14 1.19 1.22 1.23 1.24 1.24 1.26 1.26 1.24 1.25 1.22 1.14 1.04 1.04 1.00 1.08 1.11 1.18 1.15 1.19 1.26 1.30 1.31 1.28 1.25 1.24 1.24 1.26 1.23 1.22 1.24 1.24
1.47 1.45 1.44 1.44 1.49 1.51 1.52 1.55 1.53 1.51 1.49 1.51 1.49 1.46 1.42 1.38 1.36 1.32 1.33 1.33 1.34 1.34 1.33 1.36 1.35 1.35 1.38 1.44 1.48 1.47 1.43 1.39 1.33 1.30 1.29 1.30 1.30 1.29 1.30 1.31 1.32 1.34 1.35 1.33 1.29 1.26 1.22 1.16 1.14 1.14 1.11 1.06 1.07 1.10 1.16 1.18 1.22 1.24 1.24 1.25 1.25 1.25 1.24 1.19 1.12 1.11 1.07 1.05 1.09 1.17 1.21 1.20 1.23 1.25 1.28 1.21 1.22 1.23 1.23 1.19 1.18 1.18 1.20 1.23 1.25
1.46 1.44 1.44 1.43 1.46 1.48 1.51 1.54 1.54 1.54 1.53 1.52 1.52 1.49 1.43 1.36 1.31 1.32 1.33 1.31 1.33 1.33 1.31 1.33 1.33 1.33 1.39 1.44 1.45 1.43 1.43 1.39 1.34 1.30 1.28 1.29 1.32 1.35 1.36 1.35 1.36 1.38 1.39 1.38 1.34 1.32 1.26 1.20 1.17 1.16 1.13 1.08 1.07 1.10 1.14 1.16 1.20 1.21 1.22 1.24 1.25 1.24 1.20 1.17 1.14 1.11 1.10 1.09 1.10 1.10 1.16 1.15 1.16 1.19 1.24 1.23 1.16 1.12 1.13 1.16 1.18 1.20 1.20 1.19 1.22
1.45 1.43 1.42 1.42 1.43 1.45 1.48 1.51 1.54 1.57 1.58 1.58 1.57 1.52 1.44 1.35 1.30 1.27 1.32 1.33 1.32 1.29 1.31 1.31 1.34 1.35 1.39 1.44 1.42 1.41 1.41 1.40 1.36 1.33 1.32 1.31 1.31 1.34 1.37 1.37 1.37 1.39 1.40 1.40 1.40 1.38 1.33 1.26 1.20 1.18 1.15 1.14 1.12 1.12 1.13 1.16 1.18 1.18 1.21 1.22 1.24 1.22 1.19 1.17 1.15 1.13 1.12 1.10 1.12 1.15 1.13 1.19 1.18 1.11 1.22 1.26 1.23 1.20 1.12 1.08 1.07 1.18 1.23 1.21 1.17
1.41 1.40 1.40 1.40 1.41 1.43 1.48 1.53 1.57 1.58 1.61 1.62 1.60 1.55 1.49 1.38 1.30 1.30 1.32 1.31 1.30 1.28 1.27 1.27 1.31 1.37 1.40 1.43 1.42 1.42 1.41 1.39 1.37 1.36 1.35 1.34 1.32 1.32 1.36 1.38 1.38 1.38 1.40 1.42 1.43 1.43 1.40 1.34 1.26 1.21 1.19 1.19 1.18 1.19 1.18 1.16 1.20 1.19 1.21 1.22 1.24 1.23 1.20 1.18 1.14 1.12 1.11 1.12 1.12 1.10 1.14 1.13 1.16 1.21 1.25 1.23 1.17 1.16 1.19 1.13 1.05 1.10 1.17 1.23 1.21
1.36 1.36 1.37 1.36 1.38 1.44 1.50 1.56 1.61 1.62 1.63 1.62 1.58 1.56 1.51 1.43 1.36 1.31 1.28 1.29 1.30 1.28 1.28 1.30 1.30 1.33 1.40 1.42 1.39 1.40 1.38 1.37 1.37 1.36 1.35 1.36 1.36 1.33 1.35 1.37 1.38 1.38 1.40 1.42 1.45 1.45 1.44 1.42 1.37 1.30 1.25 1.23 1.23 1.24 1.22 1.22 1.21 1.18 1.20 1.22 1.23 1.23 1.19 1.18 1.17 1.13 1.12 1.11 1.10 1.13 1.10 1.09 1.13 1.14 1.13 1.12 1.11 1.09 1.16 1.19 1.16 1.19 1.19 1.13 1.10
1.33 1.34 1.33 1.32 1.38 1.46 1.51 1.55 1.58 1.62 1.63 1.62 1.60 1.57 1.53 1.47 1.38 1.30 1.26 1.27 1.28 1.27 1.27 1.28 1.28 1.29 1.34 1.38 1.36 1.35 1.33 1.35 1.37 1.39 1.40 1.38 1.37 1.36 1.35 1.35 1.37 1.38 1.38 1.39 1.43 1.45 1.47 1.49 1.50 1.46 1.37 1.27 1.24 1.26 1.26 1.26 1.26 1.24 1.23 1.22 1.20 1.20 1.18 1.17 1.18 1.18 1.15 1.10 1.09 1.08 1.03 1.03 1.09 1.15 1.14 1.17 1.20 1.21 1.18 1.17 1.10 1.13 1.11 1.04 1.01
1.33 1.33 1.30 1.34 1.41 1.47 1.49 1.51 1.56 1.57 1.61 1.65 1.65 1.61 1.57 1.52 1.42 1.31 1.26 1.25 1.25 1.24 1.24 1.22 1.23 1.27 1.32 1.34 1.30 1.29 1.30 1.32 1.36 1.38 1.40 1.41 1.40 1.38 1.35 1.34 1.34 1.35 1.37 1.38 1.38 1.43 1.49 1.55 1.58 1.60 1.57 1.47 1.33 1.30 1.29 1.26 1.24 1.25 1.27 1.26 1.24 1.22 1.19 1.18 1.20 1.23 1.19 1.14 1.14 1.10 1.07 1.06 1.10 1.15 1.16 1.18 1.21 1.19 1.16 1.16 1.12 1.08 0.98 0.88 0.78
1.31 1.31 1.32 1.38 1.42 1.43 1.44 1.48 1.50 1.52 1.59 1.61 1.65 1.67 1.64 1.56 1.44 1.33 1.26 1.21 1.23 1.25 1.20 1.17 1.20 1.25 1.31 1.35 1.30 1.26 1.28 1.33 1.35 1.36 1.38 1.40 1.41 1.39 1.38 1.35 1.34 1.34 1.36 1.37 1.41 1.46 1.51 1.58 1.65 1.68 1.71 1.70 1.56 1.39 1.30 1.24 1.21 1.23 1.25 1.26 1.27 1.30 1.31 1.27 1.24 1.24 1.23 1.17 1.13 1.11 1.10 1.08 1.11 1.14 1.17 1.19 1.19 1.18 1.17 1.13 1.08 1.01 0.92 0.86 0.84
1.31 1.32 1.37 1.41 1.41 1.44 1.47 1.48 1.47 1.50 1.53 1.58 1.65 1.68 1.65 1.59 1.49 1.37 1.26 1.23 1.23 1.19 1.13 1.15 1.18 1.24 1.29 1.30 1.28 1.27 1.29 1.33 1.34 1.35 1.37 1.39 1.41 1.41 1.39 1.37 1.36 1.36 1.37 1.40 1.44 1.50 1.57 1.63 1.69 1.80 1.78 1.73 1.67 1.51 1.34 1.23 1.21 1.23 1.25 1.26 1.28 1.29 1.30 1.35 1.41 1.38 1.36 1.29 1.19 1.13 1.14 1.13 1.10 1.14 1.21 1.21 1.22 1.11 1.11 1.06 1.01 0.96 0.93 0.87 0.88
1.29 1.30 1.35 1.38 1.41 1.45 1.47 1.48 1.48 1.50 1.54 1.59 1.62 1.64 1.63 1.57 1.54 1.47 1.37 1.30 1.22 1.17 1.16 1.15 1.18 1.22 1.26 1.29 1.29 1.29 1.29 1.33 1.34 1.35 1.37 1.39 1.39 1.39 1.38 1.37 1.38 1.41 1.44 1.48 1.53 1.58 1.64 1.66 1.68 1.57 1.55 1.64 1.68 1.61 1.45 1.30 1.21 1.21 1.24 1.25 1.25 1.28 1.34 1.38 1.40 1.43 1.41 1.33 1.25 1.16 1.20 1.22 1.14 1.18 1.24 1.25 1.16 1.10 1.05 0.97 0.96 0.90 0.89 0.88 0.93
1.25 1.29 1.31 1.36 1.41 1.45 1.47 1.48 1.48 1.53 1.56 1.58 1.60 1.60 1.60 1.59 1.58 1.53 1.43 1.32 1.23 1.16 1.15 1.14 1.16 1.20 1.26 1.32 1.32 1.29 1.29 1.33 1.34 1.35 1.36 1.36 1.37 1.39 1.40 1.41 1.43 1.47 1.53 1.59 1.64 1.67 1.69 1.68 1.71 1.66 1.62 1.65 1.69 1.67 1.56 1.39 1.25 1.19 1.19 1.20 1.22 1.30 1.36 1.39 1.40 1.40 1.38 1.37 1.32 1.27 1.27 1.26 1.26 1.28 1.28 1.26 1.20 1.13 1.04 0.96 0.95 0.95 0.95 0.96 0.90
1.25 1.30 1.31 1.35 1.39 1.42 1.44 1.46 1.49 1.53 1.55 1.57 1.57 1.58 1.59 1.59 1.55 1.56 1.51 1.42 1.34 1.27 1.23 1.21 1.16 1.18 1.26 1.33 1.32 1.27 1.30 1.33 1.33 1.33 1.33 1.34 1.35 1.37 1.40 1.41 1.44 1.49 1.57 1.64 1.70 1.73 1.74 1.73 1.70 1.68 1.67 1.67 1.69 1.70 1.63 1.49 1.33 1.22 1.16 1.18 1.22 1.29 1.35 1.43 1.44 1.43 1.41 1.39 1.38 1.35 1.34 1.34 1.33 1.28 1.23 1.16 1.10 1.05 1.03 1.02 0.98 0.92 0.82 0.73 0.69
1.24 1.29 1.31 1.34 1.36 1.40 1.43 1.44 1.48 1.52 1.56 1.56 1.55 1.55 1.56 1.58 1.60 1.63 1.55 1.47 1.37 1.28 1.22 1.21 1.21 1.20 1.22 1.27 1.28 1.25 1.29 1.32 1.32 1.32 1.32 1.33 1.35 1.37 1.41 1.44 1.48 1.53 1.60 1.67 1.72 1.74 1.75 1.73 1.69 1.67 1.71 1.70 1.71 1.70 1.65 1.53 1.39 1.28 1.19 1.18 1.21 1.24 1.30 1.41 1.44 1.45 1.45 1.43 1.42 1.42 1.38 1.32 1.24 1.16 1.11 1.08 1.03 1.00 0.93 0.83 0.76 0.76 0.69 0.63 0.63
1.25 1.27 1.28 1.31 1.34 1.39 1.45 1.49 1.48 1.49 1.50 1.47 1.49 1.53 1.59 1.65 1.65 1.66 1.56 1.51 1.43 1.33 1.29 1.26 1.26 1.24 1.21 1.20 1.24 1.22 1.24 1.30 1.31 1.31 1.32 1.34 1.35 1.37 1.42 1.45 1.49 1.56 1.63 1.70 1.74 1.75 1.73 1.72 1.73 1.73 1.72 1.70 1.70 1.70 1.66 1.58 1.43 1.31 1.21 1.18 1.17 1.20 1.27 1.35 1.36 1.37 1.40 1.42 1.41 1.34 1.26 1.18 1.11 1.07 1.03 0.99 0.94 0.90 0.82 0.70 0.72 0.71 0.64 0.60 0.53
1.26 1.27 1.26 1.31 1.35 1.39 1.42 1.41 1.39 1.38 1.39 1.41 1.48 1.54 1.57 1.61 1.69 1.74 1.68 1.62 1.53 1.47 1.39 1.30 1.27 1.27 1.25 1.23 1.25 1.25 1.25 1.29 1.31 1.32 1.33 1.33 1.38 1.43 1.47 1.50 1.52 1.58 1.64 1.68 1.75 1.74 1.71 1.73 1.75 1.73 1.70 1.71 1.73 1.71 1.66 1.58 1.43 1.31 1.22 1.18 1.16 1.18 1.24 1.27 1.25 1.25 1.28 1.28 1.25 1.22 1.14 1.08 1.05 0.99 0.94 0.89 0.87 0.87 0.83 0.75 0.73 0.64 0.55 0.53 0.53
1.22 1.23 1.24 1.29 1.33 1.36 1.39 1.39 1.39 1.36 1.34 1.42 1.51 1.57 1.66 1.71 1.72 1.72 1.70 1.68 1.63 1.60 1.50 1.39 1.31 1.27 1.28 1.28 1.28 1.28 1.26 1.26 1.30 1.33 1.32 1.34 1.40 1.47 1.52 1.53 1.54 1.61 1.68 1.71 1.69 1.66 1.67 1.70 1.73 1.71 1.69 1.71 1.71 1.68 1.64 1.59 1.45 1.33 1.26 1.21 1.18 1.16 1.26 1.25 1.25 1.26 1.24 1.20 1.16 1.10 1.02 0.98 0.94 0.89 0.86 0.85 0.84 0.82 0.76 0.72 0.68 0.63 0.57 0.55 0.56
1.22 1.20 1.25 1.31 1.33 1.35 1.38 1.39 1.39 1.44 1.48 1.50 1.52 1.58 1.65 1.66 1.70 1.74 1.72 1.72 1.69 1.63 1.56 1.49 1.41 1.34 1.33 1.32 1.30 1.29 1.30 1.28 1.30 1.33 1.32 1.35 1.42 1.50 1.56 1.60 1.66 1.71 1.72 1.72 1.67 1.62 1.63 1.65 1.68 1.68 1.67 1.64 1.62 1.62 1.61 1.56 1.45 1.36 1.33 1.25 1.22 1.24 1.26 1.21 1.23 1.25 1.20 1.16 1.07 0.98 0.92 0.88 0.84 0.84 0.83 0.80 0.75 0.72 0.71 0.70 0.69 0.67 0.62 0.58 0.56
1.25 1.27 1.29 1.30 1.31 1.34 1.36 1.37 1.39 1.41 1.47 1.51 1.51 1.51 1.58 1.67 1.72 1.75 1.78 1.75 1.68 1.62 1.59 1.55 1.49 1.44 1.42 1.39 1.36 1.33 1.36 1.35 1.32 1.33 1.34 1.39 1.47 1.58 1.65 1.72 1.81 1.81 1.75 1.69 1.64 1.62 1.62 1.64 1.65 1.68 1.67 1.63 1.63 1.61 1.56 1.50 1.47 1.42 1.36 1.28 1.25 1.22 1.21 1.24 1.24 1.20 1.15 1.06 0.95 0.88 0.84 0.80 0.78 0.78 0.76 0.73 0.70 0.70 0.69 0.69 0.69 0.69 0.68 0.66 0.61
1.24 1.26 1.28 1.30 1.31 1.30 1.33 1.34 1.33 1.38 1.42 1.45 1.44 1.41 1.51 1.61 1.66 1.71 1.74 1.72 1.68 1.62 1.59 1.57 1.52 1.46 1.44 1.44 1.44 1.44 1.45 1.42 1.40 1.39 1.40 1.46 1.57 1.67 1.77 1.85 1.90 1.88 1.75 1.64 1.61 1.63 1.68 1.68 1.70 1.69 1.64 1.61 1.60 1.57 1.51 1.47 1.45 1.39 1.32 1.26 1.22 1.21 1.22 1.22 1.19 1.13 1.05 0.94 0.86 0.81 0.78 0.76 0.73 0.72 0.70 0.68 0.69 0.70 0.70 0.70 0.71 0.71 0.70 0.69 0.67
1.24 1.24 1.26 1.29 1.33 1.33 1.34 1.38 1.39 1.38 1.40 1.43 1.45 1.43 1.45 1.49 1.56 1.63 1.65 1.67 1.64 1.59 1.57 1.56 1.52 1.48 1.42 1.41 1.44 1.48 1.50 1.48 1.48 1.49 1.50 1.58 1.65 1.70 1.79 1.87 1.90 1.87 1.79 1.69 1.68 1.68 1.68 1.68 1.68 1.66 1.61 1.58 1.55 1.51 1.47 1.42 1.38 1.32 1.26 1.23 1.21 1.21 1.19 1.15 1.11 1.06 0.95 0.86 0.80 0.77 0.74 0.74 0.72 0.69 0.68 0.69 0.70 0.71 0.72 0.72 0.72 0.71 0.67 0.65 0.64
1.25 1.26 1.27 1.28 1.29 1.31 1.34 1.37 1.41 1.45 1.45 1.45 1.40 1.39 1.45 1.57 1.58 1.58 1.61 1.66 1.69 1.64 1.58 1.55 1.46 1.41 1.40 1.38 1.41 1.47 1.52 1.55 1.54 1.54 1.61 1.68 1.71 1.73 1.77 1.80 1.86 1.86 1.71 1.70 1.71 1.69 1.68 1.68 1.66 1.62 1.58 1.53 1.49 1.47 1.45 1.40 1.33 1.27 1.24 1.22 1.21 1.18 1.13 1.10 1.07 0.97 0.86 0.79 0.76 0.74 0.73 0.72 0.70 0.69 0.71 0.72 0.73 0.74 0.72 0.71 0.70 0.67 0.64 0.61 0.59
1.20 1.21 1.25 1.30 1.33 1.38 1.38 1.37 1.40 1.44 1.49 1.53 1.49 1.45 1.42 1.45 1.47 1.52 1.60 1.63 1.65 1.67 1.64 1.57 1.48 1.41 1.34 1.35 1.39 1.46 1.54 1.58 1.56 1.60 1.69 1.77 1.80 1.81 1.82 1.82 1.81 1.70 1.66 1.67 1.68 1.64 1.60 1.61 1.61 1.58 1.53 1.47 1.46 1.43 1.37 1.31 1.27 1.24 1.23 1.22 1.18 1.13 1.11 1.08 0.98 0.89 0.80 0.76 0.74 0.72 0.71 0.71 0.70 0.71 0.73 0.72 0.69 0.68 0.67 0.63 0.60 0.57 0.56 0.53 0.51
1.19 1.22 1.25 1.28 1.32 1.34 1.32 1.32 1.35 1.42 1.48 1.53 1.55 1.56 1.54 1.49 1.47 1.49 1.52 1.50 1.55 1.60 1.65 1.64 1.59 1.52 1.41 1.36 1.38 1.45 1.52 1.58 1.60 1.64 1.73 1.76 1.74 1.76 1.79 1.79 1.79 1.76 1.66 1.61 1.59 1.56 1.53 1.57 1.55 1.53 1.49 1.48 1.46 1.41 1.32 1.28 1.23 1.21 1.20 1.17 1.13 1.12 1.10 1.00 0.92 0.85 0.78 0.76 0.75 0.74 0.71 0.70 0.72 0.70 0.68 0.68 0.66 0.67 0.65 0.60 0.55 0.53 0.52 0.51 0.48
1.14 1.15 1.20 1.26 1.27 1.27 1.25 1.25 1.29 1.31 1.37 1.43 1.45 1.49 1.52 1.50 1.43 1.38 1.38 1.39 1.40 1.45 1.54 1.59 1.61 1.56 1.45 1.41 1.41 1.39 1.44 1.51 1.57 1.63 1.71 1.71 1.71 1.74 1.76 1.74 1.73 1.66 1.58 1.55 1.51 1.51 1.51 1.52 1.52 1.48 1.45 1.41 1.36 1.31 1.26 1.23 1.19 1.16 1.12 1.10 1.10 1.10 1.03 0.97 0.94 0.86 0.82 0.80 0.77 0.74 0.70 0.68 0.65 0.66 0.67 0.66 0.66 0.64 0.61 0.56 0.52 0.50 0.50 0.47 0.41
1.16 1.15 1.16 1.17 1.15 1.18 1.19 1.22 1.27 1.32 1.38 1.45 1.48 1.45 1.39 1.41 1.41 1.41 1.46 1.47 1.43 1.39 1.41 1.55 1.67 1.71 1.66 1.56 1.47 1.43 1.48 1.50 1.58 1.75 1.80 1.78 1.76 1.74 1.76 1.75 1.74 1.64 1.56 1.52 1.47 1.49 1.48 1.44 1.41 1.38 1.34 1.29 1.23 1.19 1.15 1.13 1.11 1.09 1.06 1.06 1.05 1.01 0.94 0.92 0.85 0.81 0.81 0.79 0.73 0.68 0.64 0.65 0.65 0.66 0.66 0.64 0.63 0.60 0.58 0.54 0.53 0.48 0.46 0.42 0.36
1.15 1.19 1.25 1.25 1.24 1.25 1.27 1.28 1.32 1.35 1.37 1.41 1.45 1.50 1.60 1.60 1.56 1.49 1.45 1.53 1.52 1.51 1.49 1.43 1.48 1.63 1.77 1.78 1.74 1.59 1.57 1.70 1.83 1.90 1.93 1.91 1.88 1.85 1.86 1.83 1.71 1.57 1.52 1.51 1.48 1.38 1.36 1.33 1.33 1.31 1.27 1.21 1.15 1.10 1.07 1.06 1.02 0.98 0.99 1.01 0.99 0.93 0.92 0.90 0.85 0.82 0.81 0.77 0.72 0.66 0.64 0.64 0.63 0.64 0.64 0.61 0.59 0.57 0.55 0.51 0.48 0.46 0.40 0.35 0.32
1.08 1.13 1.19 1.25 1.32 1.33 1.31 1.28 1.29 1.30 1.33 1.36 1.40 1.43 1.48 1.60 1.68 1.69 1.66 1.62 1.62 1.62 1.63 1.64 1.72 1.69 1.63 1.67 1.83 1.94 2.01 2.03 2.02 1.97 1.90 1.83 1.81 1.92 1.92 1.74 1.55 1.52 1.50 1.45 1.40 1.34 1.32 1.28 1.29 1.29 1.25 1.20 1.12 1.08 1.06 1.01 0.96 0.94 0.94 0.95 0.93 0.92 0.92 0.87 0.84 0.83 0.80 0.74 0.69 0.66 0.65 0.65 0.64 0.65 0.62 0.58 0.54 0.53 0.52 0.49 0.46 0.42 0.37 0.33 0.29
1.04 1.08 1.14 1.19 1.25 1.31 1.37 1.41 1.43 1.42 1.41 1.43 1.44 1.44 1.42 1.40 1.47 1.60 1.64 1.66 1.69 1.70 1.68 1.67 1.68 1.72 1.80 1.84 1.95 2.05 2.03 1.95 1.92 1.94 1.94 1.85 1.88 1.89 1.77 1.62 1.55 1.50 1.48 1.49 1.35 1.32 1.33 1.28 1.27 1.25 1.22 1.15 1.11 1.08 1.03 0.98 0.95 0.93 0.93 0.89 0.89 0.91 0.87 0.82 0.85 0.83 0.78 0.71 0.65 0.64 0.65 0.66 0.66 0.64 0.60 0.55 0.53 0.50 0.47 0.44 0.41 0.38 0.34 0.32 0.28
1.05 1.05 1.08 1.12 1.16 1.21 1.27 1.32 1.36 1.40 1.42 1.44 1.46 1.49 1.46 1.43 1.38 1.42 1.59 1.73 1.76 1.75 1.76 1.79 1.77 1.80 1.85 1.88 1.90 1.91 1.92 1.96 1.93 1.91 1.89 1.91 1.90 1.78 1.61 1.51 1.45 1.45 1.48 1.43 1.34 1.32 1.35 1.31 1.28 1.25 1.19 1.12 1.09 1.04 1.00 0.97 0.95 0.94 0.92 0.89 0.88 0.87 0.86 0.87 0.88 0.82 0.76 0.70 0.66 0.65 0.66 0.67 0.66 0.62 0.56 0.54 0.51 0.47 0.44 0.41 0.39 0.35 0.31 0.27 0.25
1.08 1.09 1.08 1.08 1.09 1.12 1.16 1.20 1.22 1.27 1.33 1.37 1.43 1.49 1.53 1.56 1.52 1.47 1.44 1.52 1.64 1.73 1.78 1.79 1.80 1.84 1.91 1.97 1.95 1.89 1.89 1.92 1.94 1.93 1.89 1.88 1.83 1.63 1.50 1.47 1.48 1.48 1.46 1.38 1.36 1.35 1.35 1.29 1.28 1.23 1.16 1.11 1.06 1.02 0.98 0.97 0.95 0.94 0.92 0.91 0.88 0.86 0.87 0.90 0.86 0.80 0.74 0.69 0.66 0.67 0.68 0.67 0.62 0.55 0.52 0.51 0.49 0.45 0.41 0.38 0.35 0.31 0.27 0.26 0.24
1.12 1.15 1.16 1.15 1.13 1.11 1.11 1.13 1.14 1.15 1.18 1.23 1.32 1.35 1.41 1.43 1.39 1.37 1.41 1.39 1.40 1.49 1.58 1.70 1.81 1.84 1.88 1.93 1.97 1.89 1.82 1.83 1.89 1.89 1.84 1.71 1.60 1.53 1.49 1.44 1.40 1.43 1.44 1.44 1.42 1.40 1.34 1.27 1.23 1.17 1.12 1.05 1.02 1.00 0.96 0.96 0.94 0.92 0.90 0.87 0.85 0.86 0.87 0.87 0.85 0.79 0.71 0.67 0.65 0.65 0.65 0.60 0.55 0.53 0.51 0.47 0.43 0.39 0.36 0.35 0.33 0.30 0.26 0.25 0.24
1.13 1.14 1.15 1.16 1.16 1.17 1.19 1.20 1.20 1.19 1.18 1.19 1.22 1.23 1.28 1.39 1.45 1.47 1.54 1.58 1.56 1.59 1.63 1.82 1.85 1.88 1.97 2.04 1.97 1.83 1.77 1.65 1.65 1.72 1.64 1.58 1.54 1.51 1.38 1.36 1.36 1.37 1.37 1.41 1.42 1.39 1.34 1.29 1.21 1.13 1.09 1.04 1.02 0.99 0.98 0.95 0.94 0.92 0.90 0.86 0.84 0.86 0.87 0.87 0.82 0.73 0.66 0.63 0.63 0.62 0.58 0.53 0.53 0.52 0.49 0.44 0.39 0.37 0.36 0.34 0.32 0.29 0.28 0.25 0.24
1.17 1.16 1.16 1.16 1.17 1.19 1.22 1.25 1.28 1.30 1.33 1.35 1.36 1.36 1.38 1.40 1.47 1.60 1.60 1.72 1.76 1.66 1.58 1.67 1.77 1.83 1.93 1.97 1.86 1.84 1.71 1.54 1.45 1.53 1.57 1.54 1.52 1.52 1.43 1.34 1.30 1.32 1.34 1.38 1.39 1.35 1.28 1.25 1.18 1.10 1.05 1.01 1.00 0.99 0.98 0.95 0.94 0.92 0.88 0.86 0.88 0.89 0.87 0.82 0.75 0.67 0.61 0.59 0.59 0.56 0.53 0.51 0.51 0.48 0.44 0.39 0.38 0.38 0.37 0.34 0.32 0.29 0.27 0.25 0.25
1.21 1.19 1.19 1.21 1.23 1.27 1.27 1.29 1.37 1.44 1.45 1.46 1.52 1.52 1.54 1.55 1.51 1.65 1.79 1.85 1.81 1.76 1.66 1.64 1.74 1.89 1.76 1.73 1.96 1.79 1.59 1.47 1.43 1.43 1.43 1.50 1.53 1.49 1.44 1.39 1.34 1.31 1.32 1.37 1.38 1.31 1.23 1.18 1.12 1.05 1.02 1.01 0.99 0.98 0.96 0.94 0.93 0.89 0.87 0.88 0.89 0.87 0.84 0.78 0.71 0.63 0.59 0.57 0.54 0.52 0.51 0.49 0.48 0.45 0.42 0.40 0.38 0.37 0.35 0.33 0.31 0.28 0.27 0.26 0.25
1.21 1.21 1.22 1.24 1.29 1.32 1.32 1.32 1.35 1.39 1.42 1.48 1.55 1.57 1.58 1.59 1.61 1.66 1.67 1.63 1.62 1.61 1.54 1.57 1.57 1.66 1.64 1.73 1.69 1.62 1.53 1.41 1.32 1.26 1.29 1.33 1.42 1.46 1.43 1.38 1.35 1.35 1.37 1.36 1.33 1.28 1.19 1.09 1.06 1.04 1.02 1.00 0.98 0.97 0.95 0.93 0.91 0.89 0.88 0.86 0.86 0.84 0.79 0.74 0.66 0.59 0.55 0.53 0.52 0.51 0.50 0.48 0.45 0.43 0.43 0.41 0.39 0.37 0.34 0.32 0.30 0.28 0.26 0.24 0.24
1.20 1.20 1.20 1.24 1.29 1.33 1.36 1.38 1.38 1.39 1.39 1.42 1.45 1.53 1.62 1.73 1.74 1.70 1.70 1.75 1.73 1.65 1.65 1.55 1.70 1.80 1.86 1.60 1.53 1.55 1.43 1.32 1.29 1.27 1.30 1.34 1.37 1.41 1.41 1.37 1.36 1.34 1.33 1.32 1.27 1.18 1.09 1.04 1.02 0.99 0.99 0.99 0.98 0.96 0.95 0.92 0.90 0.87 0.87 0.86 0.83 0.79 0.76 0.70 0.61 0.54 0.52 0.52 0.52 0.51 0.49 0.46 0.45 0.45 0.43 0.41 0.39 0.37 0.34 0.33 0.31 0.29 0.28 0.26 0.24
1.27 1.26 1.26 1.25 1.30 1.37 1.35 1.37 1.42 1.43 1.44 1.45 1.49 1.44 1.39 1.41 1.45 1.44 1.46 1.56 1.60 1.60 1.54 1.42 1.42 1.47 1.45 1.41 1.43 1.45 1.37 1.34 1.33 1.33 1.33 1.33 1.36 1.37 1.37 1.36 1.33 1.33 1.31 1.26 1.19 1.13 1.06 1.02 1.00 0.98 0.99 0.98 0.98 0.96 0.94 0.91 0.88 0.87 0.87 0.86 0.82 0.77 0.71 0.65 0.59 0.54 0.54 0.54 0.55 0.54 0.52 0.50 0.48 0.44 0.41 0.40 0.39 0.37 0.36 0.35 0.33 0.30 0.29 0.27 0.25
1.33 1.29 1.25 1.25 1.27 1.35 1.38 1.37 1.39 1.44 1.47 1.44 1.46 1.47 1.41 1.37 1.34 1.29 1.27 1.28 1.29 1.32 1.34 1.37 1.39 1.39 1.38 1.40 1.43 1.44 1.41 1.38 1.38 1.37 1.37 1.37 1.35 1.35 1.36 1.35 1.34 1.31 1.27 1.22 1.16 1.08 1.03 1.00 1.00 0.99 0.98 0.97 0.97 0.95 0.92 0.89 0.88 0.89 0.87 0.83 0.78 0.73 0.66 0.61 0.58 0.56 0.57 0.57 0.57 0.55 0.53 0.50 0.48 0.45 0.42 0.40 0.38 0.36 0.36 0.35 0.33 0.30 0.28 0.26 0.24
1.34 1.33 1.28 1.27 1.28 1.29 1.33 1.40 1.43 1.39 1.40 1.41 1.41 1.42 1.37 1.35 1.31 1.27 1.26 1.27 1.27 1.28 1.29 1.29 1.33 1.38 1.41 1.46 1.47 1.47 1.43 1.40 1.37 1.38 1.37 1.39 1.42 1.42 1.40 1.38 1.36 1.33 1.27 1.21 1.15 1.08 1.02 1.00 1.00 1.01 1.00 1.00 0.98 0.94 0.90 0.90 0.91 0.89 0.85 0.80 0.75 0.70 0.65 0.62 0.61 0.60 0.60 0.58 0.56 0.55 0.52 0.49 0.46 0.44 0.41 0.39 0.37 0.36 0.35 0.35 0.32 0.29 0.27 0.25 0.23
1.32 1.32 1.33 1.34 1.36 1.37 1.39 1.40 1.41 1.43 1.40 1.40 1.42 1.43 1.42 1.41 1.32 1.27 1.27 1.26 1.25 1.29 1.29 1.29 1.32 1.35 1.38 1.42 1.45 1.44 1.43 1.43 1.42 1.43 1.45 1.47 1.48 1.45 1.41 1.38 1.33 1.28 1.22 1.16 1.11 1.09 1.07 1.04 1.03 1.05 1.05 1.03 1.00 0.98 0.97 0.96 0.94 0.90 0.84 0.79 0.74 0.70 0.67 0.65 0.63 0.61 0.59 0.57 0.55 0.54 0.52 0.50 0.47 0.43 0.41 0.39 0.37 0.35 0.35 0.34 0.30 0.27 0.25 0.23 0.23
1.34 1.33 1.31 1.32 1.39 1.39 1.39 1.41 1.39 1.42 1.42 1.41 1.40 1.42 1.43 1.47 1.43 1.34 1.34 1.30 1.30 1.32 1.31 1.31 1.31 1.30 1.31 1.34 1.37 1.38 1.40 1.42 1.44 1.45 1.46 1.45 1.42 1.39 1.37 1.32 1.26 1.20 1.16 1.14 1.15 1.13 1.10 1.09 1.08 1.06 1.03 1.01 1.00 0.98 0.98 0.97 0.96 0.92 0.87 0.81 0.74 0.70 0.69 0.67 0.65 0.64 0.61 0.58 0.56 0.54 0.53 0.50 0.46 0.44 0.42 0.40 0.37 0.35 0.34 0.32 0.28 0.25 0.23 0.22 0.22
1.34 1.34 1.34 1.34 1.38 1.41 1.42 1.44 1.44 1.40 1.40 1.37 1.36 1.36 1.38 1.40 1.39 1.40 1.34 1.33 1.34 1.34 1.33 1.34 1.34 1.35 1.36 1.37 1.39 1.40 1.41 1.41 1.40 1.41 1.40 1.39 1.35 1.33 1.28 1.23 1.19 1.16 1.15 1.16 1.16 1.15 1.13 1.11 1.08 1.04 1.00 0.98 0.97 0.98 0.99 0.98 0.96 0.93 0.88 0.82 0.78 0.75 0.74 0.71 0.68 0.64 0.62 0.59 0.57 0.55 0.52 0.49 0.46 0.44 0.42 0.39 0.37 0.35 0.34 0.31 0.27 0.25 0.22 0.21 0.22
1.28 1.29 1.32 1.34 1.35 1.37 1.42 1.47 1.48 1.44 1.43 1.43 1.39 1.35 1.32 1.34 1.39 1.45 1.45 1.43 1.40 1.38 1.35 1.36 1.37 1.37 1.41 1.40 1.36 1.34 1.32 1.30 1.29 1.30 1.29 1.28 1.27 1.24 1.23 1.19 1.15 1.16 1.18 1.18 1.18 1.15 1.13 1.10 1.06 1.02 0.99 0.98 0.99 0.99 0.99 0.99 0.97 0.93 0.88 0.83 0.80 0.77 0.74 0.71 0.67 0.64 0.62 0.60 0.58 0.54 0.51 0.48 0.46 0.43 0.41 0.38 0.35 0.34 0.32 0.29 0.26 0.23 0.23 0.23 0.24
1.26 1.27 1.28 1.30 1.34 1.36 1.38 1.42 1.44 1.43 1.45 1.42 1.42 1.39 1.39 1.37 1.35 1.34 1.36 1.39 1.40 1.41 1.40 1.39 1.35 1.39 1.37 1.38 1.32 1.25 1.24 1.22 1.24 1.25 1.27 1.26 1.27 1.27 1.24 1.18 1.17 1.18 1.18 1.16 1.14 1.12 1.09 1.06 1.03 1.01 1.00 1.00 1.01 1.01 1.00 1.00 0.97 0.92 0.87 0.84 0.81 0.78 0.75 0.72 0.69 0.66 0.63 0.59 0.55 0.52 0.49 0.45 0.42 0.40 0.38 0.36 0.33 0.32 0.30 0.28 0.25 0.24 0.24 0.24 0.26
1.25 1.26 1.26 1.28 1.32 1.34 1.34 1.35 1.38 1.44 1.42 1.46 1.46 1.44 1.44 1.37 1.31 1.31 1.31 1.33 1.37 1.40 1.43 1.36 1.36 1.37 1.37 1.35 1.32 1.27 1.25 1.24 1.25 1.26 1.27 1.28 1.27 1.26 1.24 1.22 1.19 1.16 1.12 1.09 1.07 1.05 1.03 1.01 1.01 1.01 1.02 1.03 1.04 1.03 1.02 1.00 0.95 0.91 0.88 0.85 0.83 0.81 0.77 0.73 0.67 0.62 0.59 0.55 0.52 0.49 0.44 0.40 0.38 0.37 0.34 0.32 0.30 0.30 0.28 0.26 0.24 0.23 0.24 0.26 0.26
1.26 1.27 1.27 1.27 1.27 1.28 1.30 1.31 1.33 1.33 1.40 1.46 1.45 1.47 1.45 1.40 1.36 1.40 1.36 1.36 1.34 1.33 1.34 1.34 1.34 1.31 1.31 1.30 1.26 1.24 1.24 1.23 1.24 1.25 1.25 1.22 1.20 1.20 1.18 1.14 1.10 1.08 1.05 1.02 1.01 1.00 1.00 1.00 1.02 1.03 1.05 1.06 1.06 1.05 1.02 0.98 0.94 0.91 0.88 0.85 0.83 0.80 0.75 0.69 0.62 0.57 0.54 0.51 0.47 0.42 0.38 0.36 0.34 0.32 0.30 0.29 0.28 0.26 0.24 0.22 0.21 0.23 0.25 0.25 0.26
1.23 1.21 1.22 1.24 1.27 1.29 1.29 1.29 1.28 1.29 1.31 1.33 1.42 1.47 1.46 1.45 1.42 1.35 1.42 1.35 1.29 1.27 1.33 1.29 1.28 1.25 1.19 1.20 1.21 1.20 1.18 1.17 1.16 1.16 1.16 1.16 1.16 1.14 1.10 1.08 1.05 1.03 1.02 1.01 1.01 1.02 1.03 1.05 1.06 1.07 1.06 1.05 1.05 1.03 0.99 0.97 0.94 0.92 0.90 0.87 0.82 0.74 0.67 0.61 0.56 0.53 0.49 0.46 0.41 0.37 0.34 0.30 0.29 0.28 0.27 0.25 0.23 0.20 0.19 0.19 0.21 0.23 0.26 0.26 0.27
Wind_Speed
26 26 25 25 26 26 26 27 27 27 28 28 28 28 27 26 25 24 23 23 23 23 23 23 22 21 21 20 20 19 18 18 16 15 15 14 14 13 12 11 11 11 11 11 11 11 11 11 11 11 11 12 12 12 12 12 12 12 12 12 12 12 12 12 13 13 14 15 15 15 15 15 16 16 16 16 17 17 18 19 20 21 22 23 24
27 26 25 25 25 25 25 26 26 27 27 28 28 28 28 27 26 25 24 24 23 24 24 24 23 22 22 21 21 20 19 19 18 17 16 16 15 14 14 13 12 12 12 12 12 12 12 12 12 12 12 12 13 13 13 13 13 13 13 13 12 13 13 13 14 14 15 16 16 16 16 16 16 16 17 17 18 19 19 20 21 22 24 25 25
27 26 26 26 25 25 25 25 26 26 26 27 27 28 28 28 27 26 25 24 24 24 25 25 24 23 23 22 22 21 20 20 19 18 18 17 16 16 15 14 14 14 14 14 14 14 14 13 13 13 13 13 14 14 13 13 13 14 14 14 14 13 14 14 15 16 16 17 17 17 17 17 17 17 18 19 19 20 21 22 23 25 26 27 27
28 27 27 26 26 26 26 25 26 26 26 26 26 27 28 28 27 27 26 25 25 25 25 25 25 24 24 24 23 22 22 21 20 20 19 18 18 17 16 15 15 15 15 15 15 15 15 15 14 14 14 14 14 14 14 14 14 15 15 15 15 15 15 16 16 16 17 18 18 18 18 18 19 19 20 20 21 22 23 24 25 26 28 28 28
28 28 28 27 27 27 26 26 26 26 26 26 26 26 27 27 27 27 27 26 25 25 26 26 25 25 25 24 23 23 23 22 21 21 20 19 18 18 17 17 17 17 17 17 16 16 16 16 16 15 15 15 15 15 15 15 16 16 16 16 16 16 17 17 17 17 18 19 19 20 20 20 21 21 22 22 22 23 24 25 26 28 29 29 29
29 29 28 28 28 28 27 27 27 26 26 26 25 25 25 26 27 27 27 26 26 26 26 26 26 26 26 25 24 24 23 22 22 21 21 20 19 18 18 18 18 18 18 18 18 17 17 17 17 16 16 16 16 16 16 16 17 17 17 17 17 17 17 18 18 18 19 20 21 21 22 22 22 22 22 23 24 25 26 27 28 29 29 30 30
30 29 29 29 29 29 28 28 27 27 26 26 25 25 25 26 27 27 27 27 27 27 27 27 27 27 27 26 25 25 24 23 23 22 21 21 20 19 19 19 19 18 19 19 19 18 18 18 18 17 17 17 17 17 17 17 18 18 18 18 18 18 18 19 19 19 20 20 21 22 23 23 23 23 23 25 26 27 28 29 30 30 31 30 31
30 30 30 30 30 30 29 28 28 27 27 26 26 25 25 25 27 27 27 27 28 28 28 28 28 28 27 27 27 26 25 24 24 23 22 21 21 20 20 20 20 19 19 19 19 20 19 19 19 18 18 18 18 18 18 18 18 19 19 19 19 18 19 20 20 20 21 21 22 23 23 23 23 24 25 27 27 28 29 30 31 32 32 31 32
31 31 31 31 31 31 30 29 28 28 28 27 26 26 25 26 26 27 28 28 28 29 29 29 29 29 28 28 27 27 26 25 25 24 23 23 22 21 21 21 20 20 20 20 20 20 20 20 20 20 19 19 19 19 19 19 19 19 19 19 19 19 20 20 21 21 21 22 23 24 23 23 24 25 27 27 28 29 30 31 32 32 33 32 32
31 30 31 31 31 31 30 30 29 29 29 28 28 27 26 26 26 28 28 29 29 29 30 30 30 29 29 28 28 28 27 26 26 26 25 24 23 22 22 22 21 21 21 21 21 21 21 21 21 21 20 20 20 20 20 19 19 19 19 20 20 20 21 21 22 22 22 23 24 24 24 24 25 27 28 28 29 30 31 32 33 33 33 34 33
31 31 31 31 30 30 31 31 30 30 30 30 29 28 27 27 27 28 28 29 29 30 31 31 31 30 30 29 29 29 28 28 27 27 26 25 24 23 23 22 22 22 22 22 22 22 22 22 22 22 21 20 20 20 20 20 20 20 20 21 21 21 21 22 22 22 22 23 24 24 24 25 26 28 28 29 30 31 32 33 33 34 34 34 34
31 31 31 30 30 30 30 31 31 31 31 31 30 29 29 28 27 28 28 29 30 30 31 32 32 32 31 31 30 30 29 29 28 28 27 26 25 24 24 23 23 23 23 23 23 23 22 23 23 22 21 20 20 21 21 21 21 21 21 22 22 22 22 23 23 23 23 24 24 24 25 26 27 28 29 30 31 32 33 33 33 34 34 34 34
31 31 31 31 31 31 31 31 31 32 32 32 31 31 30 29 29 28 29 29 29 30 32 32 33 33 32 32 32 31 30 30 29 29 28 27 26 25 25 24 24 24 24 24 23 23 23 23 23 23 22 22 22 22 22 22 22 22 22 22 23 23 23 24 24 24 24 24 24 24 25 26 27 28 29 30 31 32 33 33 33 34 34 34 35
31 31 31 31 31 31 31 31 31 32 32 32 32 32 32 31 30 30 29 29 30 30 32 33 33 34 33 33 33 32 32 31 30 30 29 28 27 27 26 26 25 25 25 25 24 24 23 23 23 23 23 23 23 24 23 23 22 22 22 23 23 24 24 24 24 24 24 24 24 25 26 27 28 29 30 30 31 32 33 33 33 34 34 35 35
31 31 31 31 31 31 31 31 31 31 32 33 33 33 33 32 32 31 30 30 30 31 32 33 33 34 34 34 33 33 33 32 31 31 30 29 28 27 27 27 26 26 26 25 25 25 25 24 24 24 24 23 24 25 25 24 23 23 23 23 23 24 24 24 24 24 24 24 24 25 26 27 28 29 30 30 31 32 33 33 34 34 35 35 34
32 31 31 31 31 31 31 31 31 31 31 32 33 34 34 33 33 32 31 31 31 31 32 33 33 34 35 34 34 34 34 33 32 31 31 30 29 28 28 27 27 26 26 26 26 25 25 25 24 24 25 24 25 25 25 24 24 24 23 23 23 23 24 24 24 23 23 23 24 25 26 27 28 28 29 30 32 32 33 34 34 34 33 33 32
31 31 32 32 32 32 31 31 31 31 31 32 32 33 34 34 34 33 33 32 32 32 32 33 34 34 35 35 35 35 34 33 33 32 31 31 30 29 29 28 27 27 27 26 26 26 26 25 25 25 26 26 26 26 25 24 24 23 23 23 23 23 23 23 23 23 22 23 24 25 26 27 27 28 29 31 32 33 33 33 33 32 31 30 30
31 31 32 32 32 32 32 32 32 32 32 33 33 34 34 34 34 34 34 34 33 33 33 33 34 35 35 36 36 35 35 34 34 33 32 32 31 30 30 29 28 27 27 27 27 26 26 26 26 26 26 26 26 25 25 24 23 23 23 23 23 22 22 22 22 22 22 22 23 25 25 26 27 28 30 31 32 32 32 32 31 30 29 29 29
31 31 31 31 31 32 32 32 33 33 33 34 34 34 34 34 35 35 36 35 34 34 34 34 35 35 36 36 37 37 36 35 35 34 34 33 33 32 30 30 29 28 27 27 27 27 27 27 26 26 26 26 25 24 24 23 23 23 23 23 22 22 22 22 21 21 21 22 23 24 25 26 27 29 30 31 31 31 31 30 29 28 27 28 28
31 30 30 30 31 32 32 33 33 34 34 33 34 34 34 34 35 36 36 36 36 35 35 35 35 36 36 37 37 38 37 36 36 36 35 35 34 33 32 30 29 28 28 28 27 27 27 27 27 26 26 25 24 23 23 23 22 22 22 22 22 22 21 21 20 20 21 22 23 24 25 26 27 28 29 30 30 29 29 28 27 26 27 27 27
30 30 30 30 31 32 32 33 33 34 34 33 33 34 35 35 36 37 37 37 37 37 36 36 36 36 37 37 38 38 38 37 37 37 37 36 36 34 33 31 30 30 29 28 27 27 27 27 26 26 26 25 24 23 23 22 22 22 22 21 21 20 20 20 20 20 21 22 23 23 25 26 27 28 28 29 29 28 27 26 26 26 26 27 27
30 30 31 31 32 32 32 33 33 33 33 34 34 34 34 35 36 37 38 38 39 39 38 37 37 37 37 37 38 38 38 38 38 38 38 37 37 35 34 32 31 30 29 28 27 27 27 27 26 26 26 25 23 22 22 21 21 21 21 19 18 18 19 19 19 20 21 22 22 23 24 25 26 27 27 28 27 27 26 25 25 25 26 26 27
31 31 32 33 33 34 34 34 34 34 34 35 35 34 34 34 35 36 38 39 40 40 40 39 38 38 38 38 38 38 39 38 38 39 39 38 37 36 34 33 32 30 29 28 27 27 26 26 26 26 25 24 23 21 21 20 20 20 19 18 18 18 18 19 19 20 21 21 22 23 24 25 25 26 26 26 26 26 25 25 25 25 26 26 27
32 33 34 34 35 35 35 35 36 36 36 36 37 36 36 36 36 36 37 39 40 41 41 40 40 39 39 39 39 39 39 39 39 40 40 39 38 36 35 35 34 32 30 28 26 26 26 26 25 25 24 23 21 20 20 20 19 19 18 18 18 18 18 19 19 20 20 21 22 23 24 24 25 25 25 25 25 25 25 25 25 25 26 26 26
33 34 35 36 36 36 37 37 37 37 38 38 38 38 38 37 37 37 37 38 39 40 41 41 41 41 40 40 40 40 39 39 40 40 41 40 39 37 36 36 35 34 32 29 26 25 25 25 24 24 23 21 20 19 19 19 19 18 18 18 18 18 18 19 19 20 20 20 22 23 23 23 24 24 24 25 25 25 25 24 25 25 25 25 26
34 34 35 36 36 37 38 38 39 39 40 40 40 40 40 39 39 39 39 39 40 41 41 41 42 42 42 41 41 41 41 41 41 41 41 40 39 38 37 35 34 34 33 30 27 25 24 24 23 22 21 20 19 19 19 19 18 18 17 17 18 18 18 19 19 19 20 20 21 22 22 23 23 23 24 24 25 24 24 24 24 24 25 25 26
33 33 34 35 36 37 38 39 40 41 41 42 41 41 41 41 41 41 41 40 40 41 42 42 43 43 43 43 43 43 43 43 42 42 41 40 40 39 37 35 34 32 31 31 28 25 23 22 21 21 21 20 19 19 19 18 18 17 17 17 18 18 18 19 19 19 20 20 21 21 21 22 22 23 23 24 24 24 23 23 24 24 24 25 25
31 32 34 35 36 37 39 40 41 42 42 43 43 43 44 44 44 44 44 43 42 42 42 43 44 44 44 44 44 44 44 45 44 43 42 41 40 39 37 36 34 32 31 30 28 25 23 22 21 20 20 19 19 19 18 18 18 17 17 17 18 18 18 18 18 19 20 20 20 21 21 21 22 22 23 23 24 23 23 22 23 23 24 24 24
31 32 34 35 36 38 39 41 42 43 44 45 45 46 47 47 47 47 47 47 47 46 45 45 46 46 45 45 44 44 45 47 46 44 42 41 40 40 38 36 34 33 31 29 27 25 24 22 21 21 20 20 19 19 19 18 18 17 17 17 17 18 18 18 18 19 19 20 20 20 20 21 21 22 22 23 23 22 22 22 22 23 23 23 23
32 33 34 35 37 38 40 41 43 44 45 46 47 48 49 49 50 50 50 50 50 50 49 49 48 47 47 46 46 46 47 47 46 45 44 42 40 39 38 36 34 33 32 29 27 25 24 23 22 22 22 21 20 20 19 19 18 18 17 17 18 18 18 18 19 19 19 19 20 20 20 20 21 21 22 22 22 22 21 22 22 22 22 22 23
32 33 35 36 37 39 40 41 43 44 46 47 48 49 50 50 51 51 51 52 53 53 52 51 50 49 49 48 48 48 47 45 44 44 43 42 41 39 38 36 34 33 32 29 27 26 25 24 23 23 23 22 21 21 20 19 18 18 18 18 18 18 18 18 19 19 19 19 19 19 19 20 20 21 21 21 21 21 21 21 21 21 21 22 22
32 34 35 36 38 39 40 41 43 44 46 48 49 50 51 51 52 52 52 53 53 53 53 52 51 51 50 49 47 46 45 44 43 42 41 40 40 39 38 36 33 32 31 29 27 26 25 24 24 24 23 22 21 21 21 20 19 18 18 18 18 19 19 19 19 19 19 19 19 19 19 20 20 20 20 20 21 21 20 20 20 21 21 22 22
31 33 34 35 37 38 39 40 42 44 46 47 49 50 51 52 52 52 51 52 52 53 54 54 53 52 52 50 47 45 43 43 43 42 41 40 40 38 37 35 33 31 30 29 28 27 26 26 26 25 23 22 22 21 21 20 19 18 18 18 19 18 18 18 18 19 19 19 19 19 19 19 19 19 19 20 20 20 20 20 20 20 21 21 22
31 31 33 34 35 36 38 39 41 43 44 46 48 50 52 53 54 53 53 53 52 52 52 54 55 54 53 50 46 43 41 40 39 39 37 37 37 36 34 33 32 30 29 28 28 27 27 27 26 25 23 22 22 21 20 19 19 19 19 19 19 18 18 18 19 19 19 19 18 18 18 18 18 18 19 19 20 19 19 19 19 20 21 21 22
29 30 31 32 34 35 36 38 39 40 42 44 46 49 51 54 56 56 56 56 55 53 52 53 54 54 52 49 45 43 41 37 36 36 36 35 35 34 32 32 32 30 29 29 28 28 27 27 26 24 23 22 22 21 20 19 19 19 19 19 19 18 18 19 19 19 19 18 18 18 17 17 17 18 19 19 19 19 18 18 18 19 20 21 21
26 27 28 29 30 32 34 35 37 39 41 43 45 47 49 53 56 59 59 58 57 55 53 52 51 50 48 47 45 42 39 36 34 35 36 36 35 34 32 30 30 29 28 28 28 27 27 26 25 24 23 22 21 21 21 20 20 20 19 19 19 19 19 19 19 19 18 18 17 17 16 16 17 17 18 18 18 18 18 18 18 19 19 20 21
24 24 25 25 26 28 29 31 33 35 37 39 41 43 43 45 47 50 52 53 54 53 52 50 48 46 44 44 44 42 39 36 34 34 34 34 34 33 31 29 27 27 27 27 27 26 25 25 24 23 23 22 22 21 21 20 20 20 19 19 19 19 19 19 19 19 18 17 17 16 16 16 17 17 18 18 18 17 17 17 18 18 19 19 20
21 21 21 22 23 24 25 26 28 29 30 31 31 33 34 34 34 35 36 38 41 45 46 45 46 48 47 43 41 41 39 36 35 36 36 35 33 32 31 30 28 26 26 26 26 25 25 24 24 23 22 22 22 21 21 21 20 20 19 19 19 18 19 19 19 19 18 17 17 16 16 16 16 17 17 17 17 17 17 17 18 18 19 19 20
19 19 19 20 20 20 20 21 22 23 23 22 21 21 22 22 22 24 25 27 30 35 36 33 35 43 49 45 39 37 37 35 34 36 38 37 34 33 32 31 29 27 26 26 25 25 24 24 23 23 23 22 22 21 21 20 20 20 19 19 18 19 19 19 19 19 18 17 17 16 16 16 16 17 17 17 17 17 17 17 17 18 19 19 20
17 17 18 17 17 16 16 17 17 17 16 15 13 11 10 8 7 8 10 14 18 23 25 22 21 27 35 37 35 32 32 31 31 33 36 35 33 32 31 30 28 27 26 26 25 25 24 24 23 23 23 22 22 21 21 20 20 20 19 19 19 19 19 19 19 19 18 17 16 16 16 17 17 17 17 17 17 17 17 17 17 18 19 19 20
16 16 15 15 14 14 14 14 13 12 11 10 8 7 5 3 4 4 4 7 12 15 18 21 20 17 18 24 28 28 27 26 27 30 33 33 31 30 29 28 27 26 26 25 25 25 24 24 23 23 23 22 21 21 21 21 20 20 19 19 19 19 19 19 19 18 18 18 17 17 17 17 17 17 17 17 17 17 17 17 18 18 19 19 20
15 15 15 14 14 13 13 12 11 10 8 6 5 4 4 4 4 5 5 7 10 12 14 19 22 20 18 19 22 23 23 23 24 26 30 31 29 28 28 27 26 25 25 24 24 24 23 23 23 23 22 22 21 21 21 21 20 20 19 19 19 19 19 19 19 19 18 18 18 18 17 17 17 17 17 17 17 17 17 17 18 18 19 19 19
15 15 15 15 14 13 13 12 11 9 7 6 5 5 5 4 3 3 3 5 8 10 12 14 16 17 18 18 19 19 20 20 21 23 25 26 26 26 26 25 24 24 24 24 23 23 23 23 23 23 22 22 22 22 22 21 21 20 20 19 19 19 19 19 19 19 18 18 18 18 18 18 18 18 18 18 17 17 17 17 18 18 19 19 19
16 15 15 14 14 13 12 12 11 10 9 8 7 6 6 5 4 3 4 4 6 8 10 11 13 15 16 16 17 17 18 19 20 21 22 23 23 23 23 23 24 23 23 23 23 23 23 23 23 23 23 22 22 22 22 21 21 20 20 19 19 19 19 19 19 18 18 18 18 18 18 18 18 18 18 18 17 17 17 17 18 18 18 19 19
16 15 15 14 13 13 12 12 11 10 9 9 8 8 8 7 7 6 6 7 7 8 9 10 12 13 15 15 16 17 18 19 20 20 21 21 22 22 22 23 23 23 23 22 23 23 23 23 23 23 23 22 22 22 21 21 21 20 20 20 20 20 19 19 19 19 19 19 19 19 19 19 18 18 18 18 17 17 17 18 18 18 18 19 19
15 15 14 14 14 13 13 13 12 12 11 10 9 9 10 10 9 9 9 9 9 9 10 11 12 13 14 15 16 17 17 18 19 20 20 21 21 22 22 22 22 23 22 23 23 23 23 23 23 23 23 22 22 22 22 21 21 21 21 21 20 20 20 20 20 19 19 20 20 19 19 19 19 19 18 17 17 17 18 18 18 18 18 19 19
14 14 14 14 14 14 13 13 14 14 13 13 12 12 13 12 11 11 10 11 11 12 12 12 13 14 15 16 17 17 17 18 19 19 20 20 21 21 21 21 22 22 22 22 23 23 23 23 23 23 23 23 23 23 22 22 22 21 21 21 21 21 21 21 20 20 20 20 20 20 20 20 19 19 18 17 17 17 18 18 18 18 18 18 19
15 14 14 14 14 13 13 13 14 14 15 15 15 15 15 15 14 14 13 12 13 14 14 13 13 14 15 17 17 17 17 18 18 19 19 20 20 20 21 21 21 22 22 22 22 22 22 23 23 23 23 23 23 23 23 23 22 22 22 22 22 22 22 21 21 21 21 21 21 21 20 20 19 18 18 17 18 18 18 18 18 18 18 18 18
15 15 15 14 14 13 13 13 13 14 15 15 15 16 16 15 14 14 14 13 13 15 15 15 15 15 16 17 17 17 18 18 18 19 19 20 20 20 21 21 21 21 21 21 22 22 22 23 23 23 24 24 24 24 23 23 23 22 22 23 23 23 23 22 22 21 21 21 21 21 20 19 19 18 18 18 18 18 19 18 18 18 18 18 18
12 13 14 14 13 13 13 13 13 14 14 14 14 15 15 14 12 12 13 13 13 15 16 16 17 17 17 17 18 18 18 18 18 18 19 19 19 19 20 20 20 20 20 21 21 22 22 23 24 24 24 24 24 24 24 23 23 23 23 23 23 23 23 23 22 22 22 22 21 21 20 19 19 19 19 19 19 19 18 18 18 18 18 18 18
10 11 12 12 12 12 12 12 12 11 12 12 12 13 13 13 12 12 12 12 12 14 15 16 16 17 17 17 17 17 17 17 17 18 18 18 18 18 19 19 20 20 21 21 22 22 23 24 24 24 24 24 24 24 24 23 23 24 24 24 24 24 23 23 23 23 22 22 21 20 19 19 19 19 19 19 19 18 18 18 18 18 18 18 18
Wind_Direction
230 231 232 233 233 233 234 234 235 236 236 237 237 236 237 237 237 238 237 236 234 233 233 233 233 233 232 232 233 234 234 232 233 236 238 242 247 251 255 259 263 269 274 277 281 285 289 294 298 302 304 307 310 311 310 311 312 312 313 314 314 312 309 306 304 304 306 306 306 304 302 301 300 300 299 300 300 300 299 298 298 299 300 300 299
229 231 231 232 232 233 234 234 235 236 236 237 238 237 237 237 237 237 237 236 234 233 232 232 232 232 232 232 233 234 233 232 234 237 239 242 246 249 254 258 263 268 272 275 278 281 286 290 294 298 301 303 305 306 306 306 307 307 308 309 309 308 306 304 303 302 303 304 305 304 302 300 299 299 299 300 301 301 300 300 300 301 302 301 300
229 230 230 231 232 233 234 234 235 236 236 238 238 238 237 237 236 236 236 236 234 232 231 231 231 232 232 232 233 233 233 233 235 238 240 242 245 248 253 258 262 266 270 274 277 280 284 287 290 295 298 299 301 303 303 303 303 303 304 306 306 306 305 303 303 302 302 303 304 304 303 301 299 299 299 300 301 301 300 300 301 302 302 302 300
228 228 229 230 231 232 233 234 235 236 237 238 238 238 238 237 236 236 235 235 234 232 231 231 231 231 231 232 232 232 232 234 236 238 241 243 245 249 253 256 260 264 269 274 278 281 283 284 287 291 294 295 297 299 300 301 301 301 302 303 303 304 304 303 302 301 301 301 302 303 302 301 300 299 299 300 300 301 301 301 301 301 301 302 301
227 227 228 229 230 231 233 234 235 236 237 239 239 239 238 238 236 235 235 234 233 232 231 230 231 231 231 231 232 231 232 234 236 239 242 244 246 249 252 255 259 264 269 275 279 282 282 282 284 287 290 291 292 294 296 298 299 300 300 301 301 302 303 303 302 302 301 300 300 301 301 301 300 299 300 300 301 301 300 300 300 301 301 301 301
226 226 227 228 229 231 232 233 235 236 238 239 239 240 239 238 236 235 234 233 232 232 231 231 231 231 231 232 231 231 232 235 237 240 242 244 246 248 250 254 259 264 270 275 280 282 282 281 283 285 286 287 288 290 292 295 297 298 298 298 299 300 302 302 302 302 301 300 300 300 301 301 301 300 301 302 302 302 301 301 300 301 301 301 300
225 226 227 228 229 231 232 234 236 238 239 240 240 240 240 238 236 234 233 232 231 231 231 231 231 231 232 232 232 231 233 235 238 240 241 243 246 247 250 254 259 264 270 275 279 281 282 282 283 284 284 284 285 287 289 292 294 296 296 297 298 299 300 301 301 301 301 301 300 300 301 302 302 301 302 303 303 303 303 303 302 301 301 301 300
224 225 226 228 230 232 233 235 237 238 240 240 241 241 240 239 236 234 233 233 232 232 231 231 231 232 232 233 232 232 233 236 238 239 240 243 245 247 250 255 259 265 269 274 277 280 280 281 282 283 283 283 283 285 287 289 292 293 294 295 296 297 299 300 300 301 301 300 300 300 301 302 302 302 303 303 304 304 304 303 303 302 301 301 301
224 225 227 229 231 233 234 236 237 238 240 240 240 241 241 240 237 235 234 234 233 233 232 232 232 232 233 233 233 233 234 237 238 238 240 243 245 248 252 256 260 264 268 272 276 278 279 281 282 282 283 282 281 282 284 285 288 291 292 293 294 295 297 299 299 300 300 300 299 300 301 301 302 303 304 304 304 304 304 303 303 303 302 301 301
225 226 228 230 232 234 235 236 237 238 239 240 240 240 241 240 238 236 235 235 235 234 234 233 233 233 233 234 234 233 235 237 237 237 240 243 246 249 253 257 260 264 267 271 274 276 278 280 281 281 281 281 280 280 281 283 285 288 289 291 293 294 295 297 299 299 299 299 299 300 300 301 302 304 304 305 305 304 304 304 304 304 303 303 302
226 227 229 231 232 234 235 236 237 238 239 239 240 240 240 240 239 238 237 237 236 235 235 235 234 234 234 234 234 234 235 236 236 237 240 243 247 251 254 258 261 263 266 269 272 275 277 279 280 280 280 281 281 279 279 281 283 285 287 289 291 292 294 296 297 297 298 299 299 300 300 301 303 304 305 305 305 305 305 305 304 304 304 303 303
227 228 230 231 232 234 235 236 237 238 238 239 239 239 239 240 240 239 238 238 237 237 236 236 236 235 235 235 235 234 235 236 236 238 241 244 247 251 255 258 261 264 266 268 271 275 277 279 280 281 281 281 282 282 280 280 282 283 285 287 289 290 292 294 295 296 297 298 299 299 300 302 304 305 305 305 305 305 305 305 305 304 304 303 303
229 230 231 231 233 234 235 236 238 238 238 238 239 239 239 239 240 240 239 239 239 238 237 237 237 236 236 235 235 235 235 236 237 239 242 244 247 251 255 259 261 264 266 268 271 274 277 280 282 284 284 282 282 284 283 281 281 282 284 287 289 290 290 292 294 296 297 298 298 299 302 303 305 306 306 306 305 305 306 306 306 305 304 304 304
231 232 232 233 234 235 236 237 238 239 239 239 239 239 239 239 240 241 240 240 240 240 239 238 238 237 237 236 236 236 236 237 238 240 242 244 247 251 255 259 261 264 267 268 271 273 276 280 283 286 286 283 283 286 285 283 282 282 285 288 289 290 290 291 293 295 297 298 298 300 303 305 305 306 306 306 305 306 306 307 307 306 305 305 305
232 233 233 234 235 235 236 236 237 238 238 238 239 239 240 240 240 241 241 241 242 242 241 239 239 238 237 237 237 237 237 237 238 240 242 244 247 251 255 258 261 264 266 269 271 273 276 279 282 285 286 285 284 285 286 284 283 282 285 288 289 289 289 290 292 295 296 297 299 302 305 306 306 306 306 306 306 307 308 308 308 308 307 307 307
233 234 234 235 235 236 235 235 236 236 237 238 239 240 241 241 240 240 242 243 243 243 242 241 240 239 238 238 238 238 238 238 238 240 243 245 248 251 254 257 260 263 266 268 271 273 276 279 281 284 286 286 286 285 284 283 283 283 285 287 287 287 288 289 292 293 294 296 299 303 305 306 307 307 307 307 308 309 309 309 309 309 309 309 308
234 235 236 236 236 236 236 235 236 237 237 238 240 241 242 242 241 241 242 243 244 244 244 243 241 240 239 239 239 239 239 238 239 241 243 245 248 251 253 256 258 261 265 268 270 273 275 277 280 283 285 286 287 285 282 281 283 284 285 286 286 286 287 290 292 293 293 295 299 303 305 307 307 308 308 308 309 310 311 311 311 310 310 310 310
235 237 238 237 237 237 237 237 238 239 239 240 242 243 243 243 243 242 242 243 244 245 245 244 243 241 240 240 240 240 240 239 239 241 243 245 248 250 252 254 257 260 264 267 269 271 273 275 278 282 285 286 286 284 280 279 282 284 284 284 283 284 286 289 292 293 295 297 301 304 306 308 308 308 309 309 310 311 312 312 312 312 311 311 312
236 237 238 238 238 239 239 239 240 241 242 243 244 244 244 244 243 242 242 243 244 245 245 244 244 243 242 241 241 241 242 241 240 242 244 245 247 250 252 254 256 259 262 265 267 270 273 275 276 279 283 285 285 283 278 278 280 283 283 282 281 282 286 289 291 293 297 299 302 304 306 308 309 310 310 311 312 312 313 313 313 313 313 313 313
237 239 240 239 240 241 241 241 242 243 244 245 246 246 245 244 244 243 242 243 243 244 245 244 244 243 243 242 242 242 243 242 241 242 243 245 247 249 251 253 255 258 261 263 265 268 272 274 275 276 280 283 284 282 277 275 278 282 282 281 281 283 286 289 290 293 297 299 301 304 306 308 311 312 312 313 314 314 314 314 314 314 314 314 314
239 241 241 240 241 241 241 242 243 244 245 245 246 247 246 245 244 243 241 241 242 243 244 244 244 244 243 243 243 243 243 242 241 242 243 245 246 248 250 253 254 257 260 262 264 267 270 272 275 275 278 281 283 281 277 274 277 281 281 282 283 285 286 288 290 293 296 298 301 304 307 310 312 313 314 315 315 316 315 315 315 315 315 315 315
241 242 242 242 242 242 242 244 245 246 245 244 245 247 247 246 245 243 242 241 241 242 243 243 244 244 244 243 243 243 242 241 241 242 243 244 245 247 250 252 254 256 258 260 263 266 268 271 274 275 277 280 282 280 276 274 276 279 280 282 283 284 286 288 290 292 295 298 301 305 308 311 313 314 315 316 316 316 316 316 315 315 315 316 316
242 242 243 243 244 244 244 245 247 247 245 244 245 246 247 247 247 246 244 242 241 242 243 243 243 244 244 244 243 243 242 242 241 242 243 244 245 246 248 251 252 253 256 258 260 263 266 270 273 275 277 279 281 278 274 274 276 277 278 280 282 284 286 288 289 292 294 298 302 306 309 311 313 314 316 317 317 317 316 316 316 315 316 317 317
244 244 244 244 245 245 246 247 248 248 247 246 246 246 247 247 248 248 246 243 242 242 242 243 243 243 244 245 244 244 243 243 241 241 242 243 244 244 246 248 249 250 252 256 259 262 266 269 272 274 276 278 277 275 273 272 274 275 277 279 282 284 286 287 288 291 294 298 303 306 309 311 313 315 316 317 317 317 316 316 316 316 318 318 318
248 248 247 246 246 247 247 248 249 249 249 248 247 247 246 246 247 248 246 245 244 244 244 243 243 243 244 244 244 243 243 242 242 242 242 242 242 242 243 245 246 247 248 252 258 263 265 267 270 272 274 275 273 272 271 271 272 275 277 279 282 284 285 286 288 291 295 299 303 306 309 311 313 315 316 317 317 316 316 315 316 318 319 319 319
252 251 251 249 249 249 249 250 250 251 250 249 248 247 246 246 246 246 245 245 245 245 245 245 245 244 243 243 242 242 242 242 242 242 241 242 242 241 242 243 244 245 246 250 257 262 263 265 268 271 272 272 271 269 269 270 273 275 277 279 282 283 284 285 287 291 295 300 303 306 309 312 314 315 316 316 316 316 316 316 317 319 320 320 320
253 253 252 252 252 252 252 253 252 252 251 250 249 248 246 246 246 246 245 245 245 245 245 245 245 245 244 242 242 242 242 242 241 240 241 241 241 240 240 241 242 244 246 251 255 259 262 264 266 269 270 269 268 267 268 270 273 275 276 279 282 282 283 285 288 293 297 301 304 307 310 312 314 315 315 316 316 316 316 316 318 319 320 320 321
257 256 255 255 255 255 255 255 254 253 252 250 249 249 248 247 247 247 247 248 247 247 246 245 245 245 245 243 242 241 242 241 240 240 240 240 239 238 238 239 240 242 245 249 250 254 260 264 264 265 266 265 264 266 268 270 272 274 275 278 280 281 281 284 288 293 298 301 304 307 309 311 313 314 315 315 316 316 315 316 318 319 319 320 320
261 260 259 259 258 258 258 258 257 255 254 252 252 251 250 249 249 249 249 249 249 248 247 247 247 246 245 243 241 240 240 240 239 238 238 237 237 236 236 235 237 240 243 245 247 252 258 260 260 260 260 260 262 264 266 268 271 273 275 276 277 278 280 283 288 293 297 300 303 305 308 310 312 313 314 315 316 315 315 316 317 319 320 320 320
265 264 263 262 261 261 261 260 259 257 256 254 253 253 252 251 251 250 250 249 249 248 247 248 248 246 244 243 242 240 240 239 236 234 234 234 234 234 233 233 235 239 241 243 246 252 255 255 255 256 256 257 260 262 264 266 268 269 272 274 275 276 279 283 288 293 296 299 302 304 307 309 311 312 313 314 315 314 314 316 318 319 320 321 321
268 267 267 266 265 264 263 262 261 260 258 256 255 254 253 252 252 252 252 250 249 248 247 247 246 245 244 244 242 240 239 238 235 232 231 232 232 231 231 232 235 238 240 243 247 251 253 253 252 253 254 256 258 261 262 264 265 267 271 274 274 275 278 283 288 292 295 298 300 303 306 308 310 311 312 313 313 313 314 316 318 320 320 321 322
270 270 269 269 268 267 266 264 262 261 259 258 256 255 254 253 253 253 253 251 249 247 247 245 244 244 243 242 241 241 240 237 234 233 232 230 229 228 228 230 234 237 239 242 245 248 251 251 249 250 252 254 256 259 260 261 264 267 270 272 273 274 278 283 288 291 294 296 299 301 304 307 309 310 311 312 312 313 314 316 318 320 321 322 323
273 272 272 271 271 270 268 266 265 263 262 260 258 257 255 254 252 252 252 251 250 248 247 245 243 242 241 240 240 241 239 235 233 233 231 228 226 225 225 228 233 236 239 242 246 249 250 249 247 248 251 253 254 257 259 261 263 267 270 271 272 274 279 284 287 290 293 295 298 300 304 306 308 309 310 311 312 313 314 316 318 320 321 322 323
275 275 274 274 273 272 271 269 268 267 265 264 262 261 258 255 253 252 251 250 249 248 247 245 242 240 238 237 237 236 234 232 231 229 227 225 222 222 225 228 231 235 240 243 246 249 248 245 244 246 249 251 253 256 258 260 264 267 269 270 272 276 281 284 286 289 291 293 296 299 302 305 306 308 309 311 312 313 314 315 317 320 321 322 323
275 275 275 275 274 274 273 272 271 271 270 268 266 264 262 259 255 253 250 248 246 246 245 243 240 237 235 234 232 229 227 226 225 225 224 222 221 222 226 230 232 237 242 244 244 246 245 242 242 245 248 250 252 255 257 260 263 266 268 270 273 277 281 283 285 287 289 291 293 296 299 302 305 307 309 310 311 312 313 314 317 319 321 322 323
276 277 278 278 278 277 276 276 276 276 275 273 270 268 267 263 259 253 249 246 244 243 243 242 239 236 233 230 226 222 220 220 222 223 223 222 221 222 225 229 232 237 240 241 242 242 240 239 241 245 247 248 251 254 257 260 263 266 268 271 274 278 280 282 283 285 287 288 291 293 296 300 304 306 308 310 311 312 312 313 315 318 320 321 324
279 281 281 282 282 282 283 282 282 281 280 278 275 273 272 270 265 259 252 247 243 239 237 237 235 232 229 226 221 217 216 218 220 220 220 220 221 223 225 228 231 234 235 237 239 238 236 237 242 244 246 248 251 254 257 260 263 266 269 271 275 278 279 280 281 283 284 286 288 290 293 298 302 304 307 309 311 311 310 311 313 316 318 321 323
280 282 284 285 285 287 289 290 290 289 288 286 282 279 274 271 270 266 256 247 239 232 230 234 236 230 223 219 215 213 215 218 221 221 221 222 225 229 231 233 233 233 233 235 235 233 233 237 241 243 246 249 251 254 257 260 263 266 268 271 274 277 277 278 280 281 281 283 285 287 291 295 299 302 306 309 310 309 308 309 312 315 317 320 322
280 283 285 288 289 291 294 297 297 297 296 295 293 288 280 273 272 268 257 243 231 222 222 231 231 219 210 208 209 211 214 218 221 221 221 223 228 234 235 234 234 233 232 231 231 231 233 237 240 243 245 248 251 254 257 260 262 265 267 270 273 275 276 276 277 278 278 279 282 285 289 292 296 300 304 307 307 307 306 308 310 313 316 318 321
280 283 285 288 291 292 295 300 302 304 305 303 302 303 299 283 271 264 244 220 206 203 207 207 196 185 187 195 202 208 212 216 219 219 218 221 228 232 232 231 231 231 229 228 229 231 234 237 240 243 245 248 251 254 256 259 261 263 266 269 272 274 274 274 275 275 275 276 279 282 286 290 294 298 302 304 304 304 304 305 308 311 314 317 319
279 282 284 286 289 290 293 297 301 305 308 308 305 313 320 293 243 229 209 184 177 180 190 197 197 192 189 194 201 209 215 220 222 220 217 220 225 227 227 228 228 226 226 228 230 233 236 238 241 243 246 249 251 253 255 258 260 262 265 269 271 271 271 272 273 273 272 273 276 280 283 287 291 295 299 302 302 301 301 303 306 309 312 315 317
277 280 284 286 285 286 287 289 291 296 302 302 299 308 320 305 262 242 234 219 207 202 203 209 219 226 223 213 211 217 222 225 225 220 217 219 223 224 224 225 225 225 227 230 232 235 237 239 241 244 246 248 251 253 254 256 258 261 265 267 268 268 269 271 272 272 271 272 275 278 281 285 289 293 297 299 299 298 298 300 303 307 310 312 315
276 280 284 285 283 282 281 279 279 282 283 279 277 279 286 293 285 255 233 217 211 212 211 211 215 218 216 213 214 217 218 219 216 211 210 213 216 217 219 221 223 226 229 231 233 236 238 240 242 244 246 248 250 253 254 255 258 261 264 265 265 266 268 270 271 271 271 272 275 277 280 284 288 291 294 296 296 295 295 297 301 304 307 310 312
277 278 281 282 280 279 279 277 275 274 271 265 263 264 262 257 253 245 230 210 200 200 200 200 202 203 204 206 209 210 210 210 208 205 205 208 211 214 218 222 224 227 229 232 235 238 239 241 243 245 246 249 251 252 254 256 259 261 262 262 263 265 267 269 271 271 271 272 274 276 279 282 286 289 291 293 293 293 293 295 299 302 305 307 310
276 275 276 276 275 276 280 279 273 269 266 262 258 256 254 251 251 254 247 234 223 217 212 209 207 207 208 210 212 212 212 211 210 209 210 212 214 218 221 223 225 228 231 234 237 239 240 242 244 245 247 249 250 251 254 257 259 260 261 261 262 264 267 269 271 271 271 272 274 275 278 280 283 286 288 289 290 290 291 293 297 300 302 305 308
275 273 272 272 272 274 276 275 271 266 264 260 254 250 249 251 255 257 252 243 235 231 227 222 219 216 216 216 216 215 215 214 214 214 214 216 218 221 224 226 229 231 233 236 239 241 242 244 245 245 247 248 249 251 254 256 257 258 259 260 261 264 266 268 269 271 272 273 273 275 276 278 281 283 285 286 287 288 290 292 294 297 299 302 305
273 272 272 271 271 272 272 271 269 267 264 259 255 252 249 249 251 252 250 246 240 234 229 227 225 222 220 218 216 215 215 216 217 218 219 221 223 226 228 231 233 235 237 240 242 243 244 244 245 246 248 249 250 252 254 256 257 257 258 258 259 262 264 266 267 270 271 272 273 274 274 276 279 280 281 283 285 287 288 290 292 294 297 299 303
271 271 271 270 269 269 271 271 269 266 264 261 260 258 254 251 249 248 249 247 240 232 228 229 228 222 216 213 214 215 217 219 221 224 225 227 229 231 233 235 237 238 240 241 242 243 244 245 246 247 249 250 251 253 255 256 256 256 257 257 258 260 263 265 266 268 269 270 272 273 274 275 276 277 278 281 284 285 287 288 289 291 294 297 300
270 269 270 270 268 267 268 269 268 267 266 264 262 261 258 254 250 247 244 243 239 235 233 232 229 222 217 216 218 220 223 224 227 229 230 231 233 235 236 236 237 238 239 241 243 244 245 246 248 249 250 251 253 254 254 255 255 255 256 257 258 260 262 264 265 266 268 269 272 273 273 273 273 275 277 280 283 284 285 286 287 289 291 294 297
275 272 270 270 269 267 266 267 267 266 265 264 263 261 256 252 249 246 244 243 242 239 235 232 228 225 223 223 224 226 227 228 229 230 231 232 234 235 236 237 238 240 242 244 246 247 248 249 250 251 251 253 254 254 254 254 254 255 255 256 257 259 261 263 264 265 267 268 270 270 270 271 272 275 277 280 282 283 283 284 284 286 289 292 295
280 278 275 273 271 269 268 267 266 264 262 261 258 252 247 247 249 248 245 244 241 232 225 223 223 223 224 225 227 228 228 228 229 230 232 234 236 237 239 241 242 244 247 248 249 250 250 250 251 252 253 254 254 253 253 253 253 254 254 255 256 258 260 262 264 265 266 266 267 267 268 270 272 274 277 279 280 281 281 282 282 284 287 289 292